NOAA 16 DEB, 41202

Orbit data source: Space-Track

NOAA 16 DEB, 41202 is space debris in SSO originally from a launch on Thu, 21 Sep 2000 UTC launched from the Air Force Western Test Range (AFWTR). Debris objects in space refer to the collection of defunct objects orbiting the Earth. Examples of debris include non-operational satellites, rocket bodies, and fragments generated from explosions, collisions, or faulty payload assembly.

Loading next visibility...
Identifier
41202, 2000-055DF
Orbit
SSO
Country
Flag of USUS
Related business
Manufacturer
Unknown
Mission
Spacecraft
Bus & Motor
Unknown
Mass
Unknown
Launch date (UTC)
2000-09-21 (26 years ago)
Launch vehicle
Unknown
Launch site
Air Force Western Test Range (AFWTR)
Object type
Payload
Rocket body
Debris
Shape & HBR
Unknown shape, 0.1 m
Radar Cross Section
Medium (>0.1 m² and <1 m²)

Expand to show TLE details & history
Last TLE update: 2 days ago

TLE from 2 days ago
0 NOAA 16 DEB
1 41202U 00055DF  26207.78563500  .00002178  00000-0  12999-2 0  9990
2 41202  98.8841 188.4069 0073317 315.8110  43.7218 14.06951169542733
Epoch: 2026-07-26T18:51Z
TLE epoch observation values (Epoch: 2026-07-26T18:51:18.864Z)
Latitude
0.0001°
Longitude
-38.90029°
Altitude
834.491 km
Speed
7.455 km/s
True Right ascension
12h 33m 37s
True Declination
0° 00' 00"
Sunlit
Object was in daylight at epoch
Visualization orbit readout
Latitude
Unknown
Longitude
Unknown
Altitude
Unknown
Speed
Unknown
Apparent Right ascension
Unknown
Apparent Declination
Unknown
Sunlit
N/A
Visualization observer readout
Local Sidereal Time
22:32:09
Azimuth
Unknown
Elevation
Unknown
Doppler factor
Unknown
Orbital elements
Apogee altitude
920.127 km
Perigee altitude
813.889 km
Semi-major axis
7,245.145 km
Eccentricity
0.00733
Inclination
98.8841°
RAAN
188.4069°
Arg. of periapsis
315.811°
True anomaly
44.30634°
Mean anomaly
43.7218°
Eccentric anomaly
44.01368°
Mean motion
3.51943 °/min
Orbital period
102.29 mins
BSTAR
0.0012999
Loading maneuver chart data...
Computing Atmospheric mass density...
Loading historical data...
Loading historical data...
Loading historical data...
Loading historical data...
Loading historical data...
Loading historical data...
Loading historical data...

Documentation

Showing up to 5 results
|